{"data":{"norad_id":57152,"intl_designator":"2023-090BD","name":"STARLINK-6164","alt_names":[],"object_type":"PAYLOAD","status":"ACTIVE","operator":null,"country":"US","launch_date":"2023-06-23","launch_site_code":"AFETR","launch_vehicle":null,"mission":null,"orbit_class":"UNKNOWN","rcs_meters":null,"size_class":null,"mass_kg":null,"dimensions":null,"purposes":["comms"],"wikipedia_slug":null,"has_3d_model":false,"image_url":null,"decayed_at":null,"tle_current":{"epoch":"2026-09-20T08:09:23.218848Z","epoch_age_seconds":134751,"freshness":"FRESH","line1":"1 57152U 23090BD  26263.33985207  .00000101  00000+0  13211-4 0  9993","line2":"2 57152  43.0034 243.9651 0001418 281.3908  78.6785 15.27574183180318","mean_motion":15.27574183,"eccentricity":0.0001418,"inclination_deg":43.0034,"raan_deg":243.9651,"arg_perigee_deg":281.3908,"mean_anomaly_deg":78.6785,"bstar":1.3211e-5,"rev_number":18031,"period_min":94.267107681277,"perigee_km":482.09359562726,"apogee_km":484.03943294391,"semimajor_km":6861.2035142856,"source":"CELESTRAK","updated_at":"2026-09-21T09:00:33.582692Z"}}}